Location: Aubervilles
(48.9167°N, 2.3833°E)
Time: 11:38:03
(UTC+00:00)

Lacrosse 5 - Pass Details

Date: 03 February 2023
Orbit: 714 x 724 km, 57.0° (Epoch: 09 March)

Event Time Altitude Azimuth Distance (km) Brightness Sun altitude
Rises 18:25:37 0° 229° (SW) 3,126 6.1 -15.8°
Reaches altitude 10° 18:27:59 10° 229° (SW) 2,209 5.2 -16.2°
Maximum altitude 18:33:05 81° 142° (SE) 738 1.8 -17.0°
Enters shadow 18:35:50 28° 58° (ENE) 1,346 2.8 -17.4°
